Grand Marais, MN

4:24 AM CST on November 13, 2019 (GMT -0600)
Grand Marais

Weather History for KGNA - September, 2019

Change the Weather History Date:

Sunday, September 1, 2019

  Actual Average (KCKC) Record (KCKC)
Temperature  
Mean Temperature 50 °F -  
Max Temperature 55 °F 66 °F 78 °F (2015)
Min Temperature 45 °F 48 °F 37 °F (2001)
Degree Days  
Heating Degree Days 16    
Moisture  
Dew Point 47 °F    
Average Humidity 92    
Maximum Humidity 100    
Minimum Humidity 86    
Precipitation  
Precipitation 0.02 in - - ()
Sea Level Pressure  
Sea Level Pressure 30.06 in    
Wind  
Wind Speed 2 mph (WSW)    
Max Wind Speed 8 mph    
Max Gust Speed -    
Averages and records for this station are not official NWS values.
T = Trace of Precipitation, MM = Missing Value Source: NWS Daily Summary

Daily Weather History Graph

Daily Weather History Graph

Search for Another Location

Airport or City:

Astronomy

Sep. 01, 2019 Rise Set
Actual Time 6:19 AM CDT 7:42 PM CDT
Civil Twilight 5:47 AM CDT 8:14 PM CDT
Nautical Twilight 5:08 AM CDT 8:53 PM CDT
Astronomical Twilight 4:26 AM CDT 9:34 PM CDT
Moon 8:58 AM CDT (9/1) 9:18 PM CDT (9/1)
Length of Visible Light 14h 26m
Length of Day
13h 22m
Waxing Crescent, 8% of the Moon is Illuminated
Sep 1
Waxing Crescent
Sep 5
First Quarter
Sep 13
Full
Sep 21
Last Quarter
Sep 28
New

Hourly Weather History & Observations

Time (CDT) Temp. Dew Point Humidity Pressure Visibility Wind Dir Wind Speed Gust Speed Precip Events Conditions
12:56 AM 48.0 °F 46.0 °F 93% 30.17 in - Calm Calm - N/A   Unknown
1:56 AM 50.0 °F 48.0 °F 93% 30.17 in - NNW 3.5 mph - N/A   Unknown
2:56 AM 46.0 °F 45.0 °F 96% 30.15 in - Calm Calm - N/A   Unknown
3:56 AM 46.9 °F 45.0 °F 93% 30.14 in - Calm Calm - N/A   Unknown
4:56 AM 48.0 °F 46.0 °F 93% 30.13 in - Calm Calm - N/A   Unknown
5:56 AM 48.0 °F 46.0 °F 93% 30.12 in - Calm Calm - N/A   Unknown
6:56 AM 48.0 °F 46.0 °F 93% 30.11 in - Calm Calm - N/A   Unknown
7:56 AM 45.0 °F 45.0 °F 100% 30.12 in - Calm Calm - N/A   Unknown
8:56 AM 48.0 °F 46.9 °F 96% 30.11 in - Calm Calm - N/A   Unknown
9:56 AM 48.0 °F 46.9 °F 96% 30.10 in - SSW 3.5 mph - N/A   Unknown
10:56 AM 48.9 °F 46.0 °F 90% 30.08 in - WSW 8.1 mph - N/A   Unknown
11:56 AM 50.0 °F 46.0 °F 86% 30.06 in - WSW 5.8 mph - N/A   Unknown
12:56 PM 50.0 °F 46.9 °F 89% 30.05 in - SW 8.1 mph - N/A   Unknown
1:56 PM 52.0 °F 48.0 °F 86% 30.03 in - SW 6.9 mph - N/A   Unknown
2:56 PM 52.0 °F 48.9 °F 89% 30.02 in - WSW 4.6 mph - N/A   Unknown
3:56 PM 54.0 °F 50.0 °F 86% 30.00 in - SW 4.6 mph - N/A   Unknown
4:56 PM 54.0 °F 50.0 °F 86% 29.99 in - WSW 5.8 mph - N/A   Unknown
5:56 PM 53.1 °F 50.0 °F 89% 29.98 in - WSW 6.9 mph - N/A   Unknown
6:56 PM 52.0 °F 48.9 °F 89% 29.98 in - WSW 8.1 mph - N/A   Unknown
7:56 PM 53.1 °F 48.9 °F 86% 29.98 in - WSW 6.9 mph - N/A   Unknown
8:56 PM 50.0 °F 48.0 °F 93% 29.99 in - WSW 4.6 mph - N/A   Unknown
9:56 PM 51.1 °F 50.0 °F 96% 30.00 in - Calm Calm - 0.02 in   Unknown
10:56 PM 50.0 °F 48.9 °F 96% 30.00 in - Calm Calm - N/A   Unknown
11:56 PM 48.0 °F 46.9 °F 96% 30.02 in - SSW 3.5 mph - N/A   Unknown